• In Hungary
  • List of Countries
  • For 7 days
  • Water Temperature
  • Satellite Maps
  • Weather Map
  • News
  • Weather Widgets
  • user-avatar
    Login

    Hourly Weather Kutanovo

    Today, 28 May, Monday

    Time Temperature Precipitation Wind Pressure Humidity
    00:00 +10°C° 0 mm 4 mps 737 mmHg 78%
    01:00 +9°C° 0 mm 5 mps 737 mmHg 76%
    02:00 +9°C° 0 mm 5 mps 736 mmHg 76%
    03:00 +9°C° 0 mm 5 mps 735 mmHg 76%
    04:00 +9°C° 0 mm 6 mps 735 mmHg 77%
    05:00 +9°C° 0.2 mm 6 mps 734 mmHg 77%
    06:00 +10°C° 0.2 mm 7 mps 733 mmHg 76%
    07:00 +10°C° 0.2 mm 7 mps 733 mmHg 76%
    08:00 +9°C° 1.5 mm 7 mps 732 mmHg 82%
    09:00 +9°C° 1.5 mm 7 mps 732 mmHg 87%
    10:00 +8°C° 1.5 mm 6 mps 732 mmHg 93%
    11:00 +9°C° 0.6 mm 6 mps 732 mmHg 88%
    12:00 +9°C° 0.6 mm 5 mps 733 mmHg 84%
    13:00 +11°C° 0.6 mm 4 mps 733 mmHg 79%
    14:00 +11°C° 0.3 mm 4 mps 733 mmHg 76%
    15:00 +12°C° 0.3 mm 4 mps 733 mmHg 72%
    16:00 +12°C° 0.3 mm 4 mps 734 mmHg 69%
    17:00 +11°C° 0.4 mm 4 mps 734 mmHg 75%
    18:00 +10°C° 0.4 mm 3 mps 734 mmHg 80%
    19:00 +9°C° 0.4 mm 3 mps 734 mmHg 86%
    20:00 +8°C° 0.2 mm 3 mps 734 mmHg 88%
    21:00 +7°C° 0.2 mm 3 mps 735 mmHg 90%
    22:00 +5°C° 0.2 mm 3 mps 735 mmHg 92%
    23:00 +4°C° 0 mm 3 mps 735 mmHg 92%

    Tomorrow, 29 May, Tuesday

    Time Temperature Precipitation Wind Pressure Humidity
    00:00 +3°C° 0 mm 3 mps 736 mmHg 93%
    01:00 +3°C° 0 mm 3 mps 736 mmHg 93%
    02:00 +2°C° 0 mm 3 mps 736 mmHg 93%
    03:00 +2°C° 0 mm 2 mps 736 mmHg 93%
    04:00 +2°C° 0 mm 2 mps 737 mmHg 93%
    05:00 +2°C° 0 mm 3 mps 737 mmHg 88%
    06:00 +3°C° 0 mm 3 mps 737 mmHg 82%
    07:00 +5°C° 0 mm 4 mps 738 mmHg 76%
    08:00 +6°C° 0 mm 4 mps 738 mmHg 66%
    09:00 +8°C° 0 mm 5 mps 738 mmHg 56%
    10:00 +9°C° 0 mm 5 mps 738 mmHg 46%
    11:00 +10°C° 0 mm 5 mps 737 mmHg 46%
    12:00 +10°C° 0 mm 5 mps 737 mmHg 45%
    13:00 +10°C° 0 mm 6 mps 737 mmHg 44%
    14:00 +10°C° 0 mm 5 mps 737 mmHg 47%
    15:00 +10°C° 0 mm 5 mps 736 mmHg 51%
    16:00 +9°C° 0 mm 5 mps 736 mmHg 54%
    17:00 +8°C° 0.2 mm 4 mps 736 mmHg 65%
    18:00 +8°C° 0.2 mm 3 mps 736 mmHg 75%
    19:00 +7°C° 0.2 mm 2 mps 735 mmHg 86%
    20:00 +7°C° 0.3 mm 2 mps 735 mmHg 90%
    21:00 +6°C° 0.3 mm 2 mps 735 mmHg 93%
    22:00 +6°C° 0.3 mm 2 mps 735 mmHg 97%
    23:00 +6°C° 0 mm 2 mps 734 mmHg 97%

    Day after tomorrow, 30 May, Wednesday

    Time Temperature Precipitation Wind Pressure Humidity
    00:00 +6°C° 0 mm 2 mps 734 mmHg 97%
    01:00 +5°C° 0 mm 2 mps 734 mmHg 97%
    02:00 +5°C° 0 mm 2 mps 734 mmHg 97%
    03:00 +5°C° 0 mm 1 mps 734 mmHg 97%
    04:00 +4°C° 0 mm 1 mps 735 mmHg 98%
    05:00 +5°C° 0 mm 1 mps 735 mmHg 94%
    06:00 +7°C° 0 mm 1 mps 735 mmHg 91%
    07:00 +8°C° 0 mm 1 mps 735 mmHg 88%
    08:00 +9°C° 0 mm 2 mps 735 mmHg 81%
    09:00 +10°C° 0 mm 2 mps 735 mmHg 74%
    10:00 +12°C° 0 mm 3 mps 735 mmHg 68%
    11:00 +12°C° 0.6 mm 3 mps 734 mmHg 76%
    12:00 +12°C° 0.6 mm 4 mps 734 mmHg 83%
    13:00 +11°C° 0.6 mm 4 mps 733 mmHg 91%
    14:00 +12°C° 0.4 mm 4 mps 733 mmHg 90%
    15:00 +13°C° 0.4 mm 4 mps 733 mmHg 89%
    16:00 +14°C° 0.4 mm 4 mps 732 mmHg 88%
    17:00 +15°C° 0.4 mm 4 mps 732 mmHg 87%
    18:00 +15°C° 0.4 mm 4 mps 732 mmHg 86%
    19:00 +15°C° 0.4 mm 4 mps 731 mmHg 86%
    20:00 +14°C° 0.1 mm 4 mps 731 mmHg 87%
    21:00 +13°C° 0.1 mm 4 mps 731 mmHg 89%
    22:00 +12°C° 0.1 mm 4 mps 731 mmHg 90%
    23:00 +12°C° 0.1 mm 5 mps 730 mmHg 91%

    31 May, Thursday

    Time Temperature Precipitation Wind Pressure Humidity
    00:00 +12°C° 0.1 mm 5 mps 730 mmHg 91%
    01:00 +12°C° 0.1 mm 5 mps 729 mmHg 91%
    02:00 +11°C° 0.1 mm 6 mps 729 mmHg 92%
    03:00 +11°C° 0.1 mm 6 mps 729 mmHg 93%
    04:00 +11°C° 0.1 mm 6 mps 728 mmHg 93%
    05:00 +13°C° 0.2 mm 6 mps 728 mmHg 94%
    06:00 +13°C° 0.2 mm 6 mps 728 mmHg 94%
    07:00 +13°C° 0.2 mm 6 mps 728 mmHg 94%
    08:00 +14°C° 0.5 mm 6 mps 729 mmHg 94%
    09:00 +14°C° 0.5 mm 6 mps 729 mmHg 94%
    10:00 +14°C° 0.5 mm 6 mps 729 mmHg 94%
    11:00 +15°C° 0.6 mm 6 mps 729 mmHg 93%
    12:00 +16°C° 0.6 mm 6 mps 729 mmHg 91%
    13:00 +16°C° 0.6 mm 6 mps 729 mmHg 89%
    14:00 +16°C° 1.2 mm 5 mps 729 mmHg 90%
    15:00 +16°C° 1.2 mm 5 mps 729 mmHg 92%
    16:00 +15°C° 1.2 mm 4 mps 729 mmHg 93%
    17:00 +15°C° 1.4 mm 4 mps 729 mmHg 93%
    18:00 +14°C° 1.4 mm 4 mps 729 mmHg 94%
    19:00 +14°C° 1.4 mm 4 mps 729 mmHg 95%
    20:00 +13°C° 0.8 mm 3 mps 730 mmHg 95%
    21:00 +12°C° 0.8 mm 3 mps 730 mmHg 96%
    22:00 +12°C° 0.8 mm 2 mps 730 mmHg 96%
    23:00 +10°C° 0.3 mm 2 mps 731 mmHg 96%

    1 June, Friday

    Time Temperature Precipitation Wind Pressure Humidity
    00:00 +10°C° 0.3 mm 2 mps 731 mmHg 96%
    01:00 +9°C° 0.3 mm 2 mps 732 mmHg 96%
    02:00 +8°C° 0.3 mm 2 mps 732 mmHg 96%
    03:00 +7°C° 0.3 mm 2 mps 733 mmHg 96%
    04:00 +6°C° 0.3 mm 2 mps 733 mmHg 96%
    05:00 +8°C° 0.1 mm 1 mps 734 mmHg 94%
    06:00 +8°C° 0.1 mm 1 mps 734 mmHg 92%
    07:00 +8°C° 0.1 mm 1 mps 735 mmHg 90%
    08:00 +9°C° 0 mm 1 mps 735 mmHg 84%
    09:00 +9°C° 0 mm 1 mps 735 mmHg 78%
    10:00 +9°C° 0 mm 2 mps 736 mmHg 72%
    11:00 +12°C° 0 mm 1 mps 736 mmHg 64%
    12:00 +14°C° 0 mm 1 mps 736 mmHg 55%
    13:00 +16°C° 0 mm 1 mps 736 mmHg 47%
    14:00 +16°C° 0 mm 1 mps 736 mmHg 47%
    15:00 +16°C° 0 mm 1 mps 735 mmHg 47%
    16:00 +18°C° 0 mm 1 mps 735 mmHg 48%
    17:00 +15°C° 0 mm 2 mps 735 mmHg 55%
    18:00 +14°C° 0 mm 2 mps 736 mmHg 62%
    19:00 +13°C° 0 mm 2 mps 736 mmHg 69%
    20:00 +12°C° 0 mm 2 mps 736 mmHg 72%
    21:00 +10°C° 0 mm 2 mps 736 mmHg 76%
    22:00 +9°C° 0 mm 2 mps 736 mmHg 79%
    23:00 +8°C° 0 mm 2 mps 736 mmHg 81%

    2 June, Saturday

    Time Temperature Precipitation Wind Pressure Humidity
    00:00 +8°C° 0 mm 2 mps 736 mmHg 84%
    01:00 +7°C° 0 mm 2 mps 736 mmHg 86%
    02:00 +7°C° 0.1 mm 2 mps 736 mmHg 88%
    03:00 +6°C° 0.1 mm 2 mps 736 mmHg 90%
    04:00 +6°C° 0.1 mm 2 mps 736 mmHg 93%
    05:00 +7°C° 0 mm 2 mps 736 mmHg 89%
    06:00 +8°C° 0 mm 2 mps 736 mmHg 86%
    07:00 +10°C° 0 mm 2 mps 736 mmHg 82%
    08:00 +13°C° 0 mm 2 mps 736 mmHg 75%
    09:00 +15°C° 0 mm 2 mps 737 mmHg 67%
    10:00 +16°C° 0 mm 2 mps 737 mmHg 59%
    11:00 +17°C° 0 mm 3 mps 737 mmHg 56%
    12:00 +18°C° 0 mm 3 mps 737 mmHg 54%
    13:00 +18°C° 0 mm 3 mps 737 mmHg 51%
    14:00 +18°C° 0 mm 3 mps 737 mmHg 52%
    15:00 +18°C° 0 mm 3 mps 737 mmHg 52%
    16:00 +18°C° 0 mm 3 mps 737 mmHg 52%
    17:00 +17°C° 0 mm 3 mps 737 mmHg 57%
    18:00 +16°C° 0 mm 3 mps 737 mmHg 61%
    19:00 +15°C° 0 mm 2 mps 737 mmHg 66%
    20:00 +13°C° 0 mm 2 mps 737 mmHg 73%
    21:00 +10°C° 0 mm 2 mps 738 mmHg 79%
    22:00 +8°C° 0 mm 2 mps 738 mmHg 86%
    23:00 +8°C° 0 mm 2 mps 738 mmHg 88%
    Show more